630  
NZUS93 KARX 010759  
HRRWXR  
 
CURRENT HOURLY OBSERVATIONS ACROSS  
MUCH OF THE UPPER MISSISSIPPI VALLEY  
NATIONAL WEATHER SERVICE LA CROSSE WI  
300 AM CDT SUN MAY 01 2016  
 
   
..SOUTHEAST MINNESOTA
 
 
 
CITY SKY/WX TMP DP RH WIND PRES REMARKS  
ROCHESTER CLOUDY 42 40 92 NE8 30.07S  
ROCHESTER/MAYO CLOUDY 43 42 97 CALM 30.07S  
WINONA CLOUDY 43 41 93 N3 30.08R  
AUSTIN CLOUDY 43 37 81 E15G22 30.05R  
ALBERT LEA NOT AVBL  
DODGE CENTER CLOUDY 43 43 100 NE8 30.07S  
PRESTON CLOUDY 41 38 87 NE10 30.05S  
OWATONNA DRIZZLE 45 39 81 N6 30.09S  
FARIBAULT NOT AVBL  

 
   
..ELSEWHERE IN MINNESOTA
 
 
 
CITY SKY/WX TMP DP RH WIND PRES REMARKS  
MINNEAPOLIS CLOUDY 44 32 62 NE6 30.13R  
INTNL FALLS CLEAR 34 28 79 E5 30.27R WCI 30  
DULUTH CLEAR 34 27 75 NE7 30.21S WCI 28  
RED WING CLOUDY 46 36 66 NE3 30.09S  
REDWOOD FALLS CLOUDY 44 30 57 NE6 30.12S  
MANKATO CLOUDY 45 36 70 NE7 30.10S  
WORTHINGTON LGT RAIN 42 40 92 NE17 30.08S  
FAIRMONT CLOUDY 43 36 75 NE12 30.07S  

 
   
..SOUTHWEST WISCONSIN
 
 
 
CITY SKY/WX TMP DP RH WIND PRES REMARKS  
LA CROSSE CLOUDY 48 37 65 NE12 30.05S  
PRAIRIE DU CHI CLOUDY 46 38 75 NE7 30.01R  
BOSCOBEL CLOUDY 47 38 71 VRB7 30.01S  
LONE ROCK NOT AVBL  
PLATTEVILLE CLOUDY 44 43 97 NE10 29.96S  
FORT MC COY CLOUDY 46 38 73 NE9 30.06R  
MAUSTON-NEW LI DRIZZLE 46 37 71 NE5 30.04S  
VIROQUA CLOUDY 43 38 82 NE14 30.03R  
WIS DELLS CLOUDY 43 38 83 NE9 30.02S  

 
   
..ELSEWHERE IN WISCONSIN
 
 
 
CITY SKY/WX TMP DP RH WIND PRES REMARKS  
MILWAUKEE CLOUDY 43 41 93 N15 29.97F  
MADISON CLOUDY 44 40 85 NE13 29.98F  
GREEN BAY CLOUDY 44 36 73 NE17 30.05F  
EAU CLAIRE NOT AVBL  
BLACK RVR FLS CLOUDY 44 42 95 CALM 30.06F  
MEDFORD CLOUDY 40 32 71 NE9 30.09R WCI 35  
WAUSAU CLOUDY 46 30 53 VRB6 30.06F  
WIS RAPIDS CLOUDY 47 28 47 E9G18 30.07S  
MARSHFIELD CLOUDY 46 29 51 NE10 30.06S  
RICE LAKE PTCLDY 41 32 69 N10 30.15R  

 
   
..NORTHEAST IOWA
 
 
 
CITY SKY/WX TMP DP RH WIND PRES REMARKS  
WATERLOO CLOUDY 43 42 97 NE14 29.97F FOG  
DUBUQUE CLOUDY 44 43 96 NE12 29.96S FOG  
DECORAH CLOUDY 43 41 93 NE8 30.01S  
MASON CITY LGT RAIN 42 41 96 NE16 30.03S FOG  
CHARLES CITY CLOUDY 43 43 100 NE15G22 30.01S  
OELWEIN CLOUDY 43 43 100 NE15 29.98S FOG  

 
   
..ELSEWHERE IN IOWA
 
 
 
CITY SKY/WX TMP DP RH WIND PRES REMARKS  
DES MOINES CLOUDY 46 42 86 E13 29.93F  
IOWA CITY CLOUDY 45 44 97 NE9 29.95S  
FORT DODGE CLOUDY 43 37 81 NE12 29.99S  
MARSHALLTOWN CLOUDY 44 42 93 E16 29.95F  
CEDAR RAPIDS CLOUDY 44 44 100 NE10 29.94S FOG  

 
   
..NORTHERN ILLINOIS
 
 
 
CITY SKY/WX TMP DP RH WIND PRES REMARKS  
CHICAGO-OHARE DRIZZLE 45 44 97 NE10 29.91S FOG  
CHICAGO-MIDWAY DRIZZLE 47 45 93 N7 29.91R FOG  
MOLINE CLOUDY 47 44 90 NE7 29.91S FOG  
ROCKFORD DRIZZLE 46 44 93 NE10 29.96R  
PEORIA CLOUDY 49 48 97 NE5 29.88R FOG  

 
 
NOTE: "FAIR" INDICATES FEW OR NO CLOUDS BELOW 12,000 FEET WITH NO  
SIGNIFICANT WEATHER AND/OR OBSTRUCTIONS TO VISIBILITY. WIND  
SPEEDS ARE IN MILES-PER-HOUR.  
 
 
CLICK HERE TO GO TO PREVIOUS BULLETINS.

The Nexlab WI Page
The Nexlab IA Page
The Nexlab MN Page Main Text Page